This is the latest recevied weather packets stored in our database for station/object WD7OO. If no packets are shown the sender has not sent any weather packets the latest 10 day(s).
| Time | Temp. | Humidity | Pressure | Rain* | Wind** | Luminosity | Snow |
|---|---|---|---|---|---|---|---|
| 1788182336 | 20.56° C | 99% | 1017.8 hPa | 0 mm | - | 19 W/m² | - |
| 1788182031 | 20.56° C | 99% | 1017.7 hPa | 0 mm | - | 22 W/m² | - |
| 1788181727 | 20.56° C | 99% | 1017.7 hPa | 0 mm | - | 20 W/m² | - |
| 1788181422 | 20.56° C | 99% | 1017.9 hPa | 0 mm | - | 21 W/m² | - |
| 1788181121 | 20.56° C | 99% | 1017.6 hPa | 0 mm | - | 26 W/m² | - |
| 1788180817 | 20.56° C | 99% | 1017.6 hPa | 0 mm | - | 33 W/m² | - |
| 1788180511 | 20.56° C | 99% | 1017.7 hPa | 0 mm | - | 44 W/m² | - |
| 1788180208 | 20.56° C | 99% | 1017.8 hPa | 0 mm | - | 47 W/m² | - |
| 1788179907 | 20.56° C | 99% | 1017.7 hPa | 0 mm | - | 40 W/m² | - |
| 1788179606 | 20.56° C | 99% | 1017.5 hPa | 0 mm | - | 32 W/m² | - |
| 1788179301 | 20.56° C | 99% | 1017.7 hPa | 0 mm | - | 23 W/m² | - |
| 1788178997 | 20.56° C | 99% | 1017.4 hPa | 0 mm | - | 17 W/m² | - |
| 1788178697 | 20.56° C | 99% | 1017.4 hPa | 0 mm | - | 22 W/m² | - |
| 1788178393 | 20.56° C | 99% | 1017.3 hPa | 0 mm | - | 26 W/m² | - |
| 1788178088 | 20.56° C | 99% | 1017.3 hPa | 0 mm | - | 32 W/m² | - |
| 1788177783 | 20° C | 99% | 1017 hPa | 0 mm | - | 41 W/m² | - |
| 1788177478 | 20° C | 99% | 1017.1 hPa | 0 mm | - | 40 W/m² | - |
| 1788177174 | 20° C | 99% | 1017 hPa | 0 mm | - | 23 W/m² | - |
| 1788176873 | 20° C | 99% | 1016.8 hPa | 0 mm | - | 13 W/m² | - |
| 1788176567 | 20° C | 99% | 1016.9 hPa | 0 mm | - | 9 W/m² | - |
| 1788176263 | 20° C | 99% | 1016.8 hPa | 0 mm | - | 12 W/m² | - |
| 1788175957 | 20° C | 99% | 1016.8 hPa | 0 mm | - | 13 W/m² | - |
| 1788175656 | 20° C | 99% | 1016.6 hPa | 0 mm | - | 11 W/m² | - |
| 1788175352 | 20° C | 99% | 1016.6 hPa | 0 mm | - | 7 W/m² | - |
| 1788175047 | 20° C | 99% | 1016.9 hPa | 0 mm | - | 4 W/m² | - |
* Rain latest hour (hover to see other rain measurements)
** Current wind speed in m/s (hover to see current wind gust speed)